Helicity
69 57 50 63 80 112 48 34 112 42 72 44 60 47 14 26 29 -4 26 41 226 222 129 57 4 10 74 156 179 199 206 209 200 176 152 119 91 80 66 56 52 50 55 56 43 35 25 10 3
66 80 95 85 88 61 17 40 32 37 57 38 53 32 -12 -22 -32 -1 41 121 166 225 138 60 4 7 46 124 143 161 166 161 153 145 130 109 83 77 66 48 53 55 53 51 41 25 12 2 -11
80 104 93 78 68 30 11 8 34 62 55 63 74 32 15 10 15 23 -2 215 198 172 133 74 26 24 15 101 119 133 140 135 125 116 100 86 74 65 61 48 54 59 53 48 35 15 1 -16 -27
105 118 125 131 40 45 57 47 37 181 157 79 101 117 41 48 9 45 71 269 199 142 109 104 35 29 28 69 106 106 128 127 114 91 81 60 58 44 48 48 59 63 54 44 32 13 -9 -37 -51
143 147 143 129 41 54 33 44 20 79 221 152 168 106 56 29 11 60 129 228 277 141 101 114 59 51 52 48 68 88 106 114 102 77 65 45 41 36 31 29 40 49 53 43 27 2 -9 -29 -45
157 181 137 94 27 20 10 3 16 -22 103 172 119 72 31 15 28 51 157 200 297 200 125 115 84 76 63 35 49 69 83 91 79 63 51 45 36 28 22 14 20 25 34 32 28 6 -4 -17 -21
170 171 108 103 52 3 -1 -34 2 -55 39 85 73 66 37 22 39 90 132 235 299 222 178 131 72 80 82 56 63 69 73 77 73 64 51 43 36 20 16 19 21 24 23 30 31 18 11 4 5
177 164 94 96 65 22 -24 6 -10 -60 -17 41 44 94 85 11 48 134 144 295 285 193 158 151 102 78 65 70 80 87 72 77 77 65 54 45 38 16 5 11 16 24 32 37 44 34 31 23 16
197 176 99 72 64 72 60 22 19 71 58 84 74 92 60 32 72 152 178 188 147 134 141 135 151 110 99 104 70 77 77 77 87 67 55 45 22 18 13 -11 9 20 39 46 52 50 35 39 32
218 186 96 150 43 55 9 25 50 80 102 105 106 35 -33 29 62 127 205 157 128 172 168 145 155 137 131 139 109 78 68 70 61 60 49 25 18 14 9 7 5 16 32 49 44 54 46 29 31
226 135 107 142 82 82 42 33 38 51 115 83 113 45 -21 61 64 46 140 136 274 263 226 184 182 174 168 178 155 129 98 96 58 56 44 32 35 25 20 18 11 2 17 24 35 38 26 32 36
166 80 129 100 105 96 55 9 9 36 80 51 80 153 19 57 55 33 60 147 198 231 224 220 192 227 215 202 177 168 162 114 114 59 57 58 49 36 22 14 19 8 1 12 17 27 42 41 36
137 69 118 83 56 74 65 18 -10 9 31 19 -6 22 70 99 117 98 50 85 125 113 228 232 237 229 253 230 221 194 170 148 123 93 64 55 44 34 34 20 24 21 15 15 19 27 32 47 41
247 192 138 96 82 54 58 34 -4 -22 -29 -23 1 51 79 135 138 110 54 12 78 110 146 264 261 250 288 281 251 230 203 176 132 107 80 54 47 36 33 33 27 27 23 28 33 34 38 51 47
156 103 87 56 60 48 107 2 31 48 3 22 39 12 38 73 60 68 61 32 57 113 125 256 294 270 279 260 260 223 213 198 152 110 86 48 43 44 46 42 34 28 36 43 49 52 49 45 45
158 152 35 37 35 57 43 -21 -7 -48 -99 -65 4 54 90 115 73 73 103 45 24 124 132 153 228 285 289 245 252 254 192 223 166 125 105 50 37 50 46 47 40 46 51 55 50 51 59 54 46
125 111 112 20 46 61 -20 -16 -36 -63 -43 -67 -26 10 56 97 78 85 66 46 29 104 144 168 179 225 270 247 251 246 229 211 172 144 103 64 50 61 54 36 51 66 68 64 63 59 53 54 46
102 87 87 51 108 133 20 -69 -60 -87 -14 4 13 -1 62 83 75 81 46 33 10 72 134 146 188 221 238 255 263 219 214 169 158 126 59 76 72 70 70 49 51 78 71 73 75 68 51 49 47
70 80 109 108 133 49 125 100 71 -6 -8 -87 39 55 76 106 81 68 48 86 55 82 110 158 179 213 271 263 244 215 191 170 142 108 58 85 99 89 87 72 64 78 77 82 84 85 72 66 78
54 45 56 59 17 46 83 54 63 95 63 34 3 8 68 179 77 104 56 54 94 102 159 156 157 195 248 240 215 217 199 156 171 153 117 107 105 122 116 97 85 98 94 87 109 126 136 96 107
9 12 50 39 30 69 68 -22 0 27 57 32 26 33 18 59 89 77 84 55 91 90 147 177 197 210 250 204 199 163 137 123 110 81 133 124 108 120 146 124 112 114 120 113 116 122 137 146 132
40 32 11 34 -4 29 85 -169 -70 -70 -18 1 -12 7 6 27 61 95 65 53 81 133 111 163 197 221 237 222 193 180 188 189 120 129 197 192 118 112 117 127 133 138 152 138 136 129 138 144 162
24 31 20 27 5 -14 78 73 -234 -31 -14 20 -27 -5 23 7 38 52 78 61 56 138 181 167 186 198 252 216 191 194 121 86 100 155 158 177 143 131 155 179 180 153 170 172 162 155 151 161 170
-17 -21 -8 -2 1 -107 0 57 -272 -35 29 91 47 -37 -26 13 14 59 59 19 62 137 188 219 199 206 234 255 218 193 137 119 112 120 181 184 161 155 150 157 192 199 157 180 189 175 167 180 168
-58 -1 -33 -60 -66 -7 -76 -84 -14 41 70 12 27 6 -50 -27 10 37 48 30 57 80 150 199 210 188 239 242 234 211 168 207 184 189 210 192 188 163 170 215 206 225 191 181 196 192 174 213 212
-11 -2 9 -2 19 86 -43 -83 -20 -35 -55 43 91 104 22 -47 -4 1 25 67 80 107 143 173 190 209 243 271 251 245 224 247 257 231 226 214 196 191 213 220 205 215 197 195 203 189 184 220 231
-11 -11 -16 43 3 53 19 51 2 41 68 12 72 138 98 27 12 32 40 96 120 134 165 190 221 225 244 274 291 274 279 271 248 254 267 269 221 166 181 226 243 246 243 239 243 213 187 209 243
-3 -26 -31 -15 5 49 82 96 15 -43 157 171 156 106 104 93 63 53 47 70 125 168 198 218 228 258 287 296 295 298 296 310 309 304 284 266 257 246 225 227 230 234 229 241 266 234 229 225 230
11 13 -19 -4 9 21 39 58 87 240 312 -59 -74 70 124 57 78 92 93 131 129 151 208 232 235 258 279 289 278 266 276 294 294 303 265 254 247 243 250 276 257 248 243 233 252 253 267 265 271
15 -10 -12 -9 25 95 54 -18 135 177 312 310 121 36 157 223 146 64 162 212 217 190 190 201 179 189 224 272 309 287 265 284 291 279 256 241 239 270 267 271 277 271 265 257 264 263 286 280 281
Wind_Speed
25 28 32 35 39 39 41 36 33 21 20 19 16 17 7 13 16 19 35 33 45 54 56 56 54 51 50 52 53 56 56 56 56 57 55 52 53 53 52 51 49 48 49 52 54 53 54 55 55
25 30 33 33 41 43 44 37 29 19 28 38 40 24 5 9 4 28 21 25 48 55 55 54 54 51 50 52 53 55 57 55 56 57 57 55 53 53 52 50 48 48 51 53 53 54 54 55 55
28 32 37 41 44 46 44 38 38 38 38 35 32 23 14 15 24 20 20 24 48 53 53 52 53 50 50 50 51 53 55 55 54 56 57 57 54 53 52 50 49 50 52 53 54 54 52 51 53
34 36 40 54 55 45 44 33 31 32 33 28 36 41 28 31 26 22 9 29 48 49 50 51 51 48 48 49 48 49 52 53 54 55 55 55 55 52 53 53 52 52 52 53 53 51 48 44 47
35 41 58 61 68 56 52 49 53 56 50 42 53 43 38 29 30 12 17 32 47 47 47 48 49 47 47 46 46 45 48 51 53 53 53 54 53 53 52 51 50 51 51 50 48 46 44 41 40
48 48 67 77 81 58 56 53 54 62 56 59 49 43 37 29 20 7 17 32 39 44 45 45 46 45 42 44 46 44 45 47 50 50 50 51 50 51 51 49 47 48 49 47 44 41 38 33 35
58 62 81 80 82 68 62 50 53 55 64 57 40 44 33 28 15 3 11 22 34 38 43 40 43 42 40 43 45 44 44 44 47 47 46 47 47 49 49 50 47 47 45 44 40 37 35 34 35
56 64 80 80 83 88 63 61 50 48 55 44 37 40 38 28 8 2 7 17 29 38 42 42 42 40 39 40 43 43 44 42 42 43 42 43 44 44 45 46 46 46 43 40 36 33 32 33 34
50 77 98 88 80 70 49 45 41 45 52 46 41 46 45 13 4 4 9 17 28 36 41 41 41 39 36 35 40 40 41 38 37 37 39 39 39 40 41 42 42 42 41 39 36 33 30 30 30
66 87 99 81 84 81 68 65 61 58 58 62 55 40 29 17 9 14 24 32 40 45 46 43 40 39 35 32 37 36 33 32 30 32 37 34 34 35 36 36 37 37 36 34 33 32 32 30 29
72 107 91 83 71 76 80 83 67 70 79 68 63 44 38 27 19 15 26 32 46 43 41 47 41 37 36 31 32 30 28 25 26 29 33 28 26 29 29 29 31 32 32 31 30 29 29 28 28
91 106 95 96 96 91 87 75 82 80 95 70 68 70 57 39 27 23 24 27 33 43 45 44 42 38 36 30 31 28 26 24 22 23 27 22 19 23 25 23 25 26 28 28 28 26 25 25 24
88 105 100 99 100 97 94 102 101 109 104 86 79 68 68 64 55 38 33 26 26 36 45 46 42 40 37 34 28 28 27 26 21 19 23 20 16 19 21 20 21 21 21 23 22 23 24 25 23
78 92 98 98 105 104 105 105 92 125 94 90 94 95 88 85 74 48 36 36 37 36 43 42 43 40 36 36 31 28 26 26 22 20 22 23 13 15 17 17 17 17 17 16 16 17 19 20 21
85 107 110 115 103 103 88 113 113 133 93 92 85 87 79 76 67 52 34 41 40 39 36 41 41 39 38 37 33 29 28 26 24 21 26 26 17 13 16 13 13 16 14 13 13 13 15 16 18
92 97 112 91 91 97 89 143 119 114 93 103 100 101 98 91 79 66 47 40 41 41 41 38 36 39 38 37 33 29 27 26 24 22 25 33 24 15 15 13 12 13 11 10 11 11 11 13 14
93 119 118 112 82 83 92 137 129 121 105 106 97 93 96 95 83 74 54 41 43 44 44 41 38 39 39 36 31 29 28 30 27 25 26 35 29 19 15 12 13 14 11 8 6 6 8 8 10
105 110 116 118 84 84 106 135 125 113 101 94 84 90 91 93 91 72 53 43 42 44 47 47 43 39 37 35 33 35 33 32 30 30 34 33 33 26 21 16 13 16 12 9 8 8 5 6 8
96 109 128 128 102 98 126 127 122 108 103 112 116 97 86 90 84 75 58 47 45 45 49 48 44 40 38 37 37 34 39 33 33 33 38 35 35 33 27 21 17 17 15 12 10 6 5 1 7
88 105 123 125 102 109 129 143 134 118 109 111 110 108 104 89 93 81 71 59 53 46 49 48 46 42 42 39 36 40 36 40 43 47 35 36 39 36 32 28 23 21 15 13 12 10 4 3 2
82 94 110 122 102 113 115 156 141 129 121 117 110 114 105 101 99 87 82 73 63 51 51 51 48 46 42 39 40 39 35 40 34 34 36 40 40 40 38 34 29 25 21 18 17 17 13 8 8
89 75 92 101 104 124 79 158 127 115 122 120 125 113 111 111 110 105 91 86 80 72 51 53 52 48 43 41 38 42 38 36 38 33 38 36 38 43 41 37 34 31 27 24 22 20 19 13 12
73 68 75 79 98 109 119 134 148 106 121 116 122 130 119 107 107 114 110 96 87 73 64 62 59 54 49 45 43 41 41 32 28 29 30 34 37 41 42 41 39 36 34 30 27 25 25 22 18
72 77 83 82 87 116 126 123 162 128 134 118 118 120 124 116 105 110 110 99 93 77 71 63 70 63 54 50 49 48 51 35 29 28 30 32 33 38 41 43 42 40 38 36 33 30 30 28 23
51 63 74 75 78 114 88 113 152 101 102 117 122 125 117 115 112 109 111 103 100 87 77 71 69 73 63 55 53 51 50 43 40 34 30 30 33 35 44 45 45 43 41 38 36 35 34 33 31
63 57 68 83 81 103 78 114 121 101 108 117 107 116 120 114 109 108 108 108 100 96 83 75 72 73 69 61 57 54 51 47 45 42 37 35 33 36 36 40 41 41 40 39 38 37 37 36 35
53 56 67 72 91 94 83 120 109 106 110 114 116 116 112 120 118 108 106 108 105 98 93 85 79 74 68 65 59 57 57 55 51 47 45 42 40 36 33 34 38 39 40 40 40 40 39 38 38
51 57 58 49 64 67 75 96 93 75 76 75 92 104 111 118 115 109 104 104 106 99 96 87 82 77 70 63 60 59 54 53 55 55 53 48 46 44 40 38 36 36 37 37 39 40 40 41 40
52 52 53 53 55 58 61 62 46 58 73 79 79 84 100 109 105 97 105 100 101 97 93 93 89 84 80 72 65 65 65 62 58 63 57 50 48 47 47 46 43 40 38 37 37 38 40 43 43
43 60 54 57 57 65 64 72 48 57 64 66 64 63 64 74 96 82 71 76 83 88 89 90 93 92 89 83 77 70 67 66 66 73 64 58 54 53 53 50 49 46 44 41 41 39 37 39 42
Wind_Direction
314 310 306 305 293 290 286 289 292 316 324 333 357 343 37 344 79 37 287 123 127 134 135 135 131 125 120 116 114 113 112 109 106 106 103 98 97 96 93 90 85 81 80 82 83 79 77 78 76
310 304 302 301 287 283 282 285 285 291 309 303 297 316 335 347 95 314 357 99 137 136 135 135 133 127 122 118 115 113 113 109 107 106 106 102 98 96 95 91 86 84 85 87 85 84 82 80 76
305 302 291 286 281 276 282 289 283 285 291 307 301 322 338 335 314 312 324 112 138 138 137 135 134 128 124 120 116 114 112 110 107 108 107 106 102 100 97 93 90 90 90 90 89 87 80 73 71
295 292 290 275 273 280 276 295 299 282 295 312 296 282 306 290 315 319 114 118 141 140 139 137 134 130 126 122 117 114 113 111 110 110 107 107 105 102 101 100 97 96 95 94 92 85 75 63 60
292 286 272 272 270 275 274 278 277 265 282 283 281 282 291 298 305 349 121 131 145 143 141 139 136 133 130 125 121 116 114 113 113 112 110 108 106 107 106 102 99 98 96 94 90 81 73 62 52
276 279 269 266 263 274 274 277 274 269 276 277 284 286 288 294 316 353 120 140 145 147 143 141 139 135 133 129 126 121 117 115 116 114 113 110 107 108 109 106 101 100 100 96 89 81 69 53 48
270 269 265 266 265 272 272 278 272 275 272 277 285 282 292 292 309 31 122 137 150 151 147 144 143 140 137 134 130 127 123 120 119 117 114 112 109 110 112 112 107 106 102 99 88 78 68 61 58
272 270 266 265 264 263 272 274 275 274 277 283 286 279 283 298 295 345 125 147 156 155 154 152 149 146 143 138 135 132 129 124 122 120 116 114 111 111 113 113 112 111 105 98 87 78 69 67 65
275 265 261 262 263 266 275 280 279 277 272 276 280 280 284 313 241 136 140 153 162 159 161 160 157 154 150 144 141 137 133 129 124 121 120 116 113 113 114 117 114 112 107 101 92 84 73 66 60
264 263 262 266 264 265 267 267 273 271 268 264 271 284 299 291 226 166 153 154 163 166 167 167 165 162 157 151 147 142 137 133 129 126 127 120 116 115 114 113 114 111 107 99 95 88 85 79 68
267 260 265 266 269 267 266 261 268 267 259 260 263 274 281 286 262 208 170 171 168 170 172 171 172 170 166 163 156 151 147 142 138 135 133 123 115 112 109 106 109 110 109 103 96 88 87 80 74
267 262 264 265 264 266 265 266 261 264 255 262 264 266 271 273 269 239 211 186 176 173 173 173 175 176 174 173 169 164 161 156 151 146 140 131 122 119 114 107 108 107 110 105 100 90 74 69 62
269 266 266 265 264 264 265 260 259 256 255 261 264 265 262 264 267 263 244 218 204 187 176 177 177 179 178 178 180 176 174 169 168 162 153 145 137 129 121 113 109 104 98 100 90 86 84 80 66
278 274 270 266 263 262 261 261 263 245 258 263 259 258 258 256 257 260 241 205 200 196 184 181 182 184 185 180 184 186 185 178 178 177 167 160 158 143 133 122 114 107 99 87 75 72 76 65 59
279 271 269 263 263 262 266 258 253 236 258 261 260 259 260 257 257 255 235 206 208 208 208 191 189 188 189 187 186 189 189 188 189 192 175 171 175 168 149 136 125 118 102 86 67 57 50 48 47
274 271 264 268 264 262 258 254 251 249 258 258 258 256 255 255 255 256 253 231 211 215 212 214 203 195 195 192 192 198 203 209 207 204 188 176 180 192 170 156 145 127 112 96 86 67 56 54 47
268 263 262 265 270 264 255 254 251 251 257 258 258 256 254 253 253 254 252 233 207 212 218 214 213 200 198 199 206 214 220 227 220 216 198 183 185 205 206 187 161 146 136 120 94 52 57 50 38
267 264 262 260 266 269 259 255 255 254 256 254 259 255 254 252 250 252 247 236 220 216 224 228 228 225 210 222 228 235 237 227 226 207 193 191 189 199 216 225 189 165 159 152 143 129 98 22 14
272 267 262 259 266 267 258 258 256 258 257 251 251 254 255 251 250 249 245 236 229 222 225 225 220 211 208 209 203 208 198 211 225 211 196 198 196 197 210 227 209 185 181 179 165 159 158 139 353
274 268 263 263 269 264 260 257 257 258 255 252 251 251 250 253 247 247 245 239 232 215 218 218 210 209 205 205 215 237 233 242 245 247 224 210 202 202 209 219 215 203 206 201 186 182 236 225 245
278 272 267 263 271 265 265 256 255 255 255 252 250 249 249 249 246 246 245 241 238 227 219 218 212 205 205 208 231 240 240 251 232 218 216 206 206 207 208 212 223 223 221 214 205 194 195 225 264
280 287 275 270 265 256 264 253 256 257 253 249 246 247 247 246 246 245 244 243 241 241 229 226 224 217 214 210 214 199 204 208 201 231 241 234 214 206 209 214 218 225 229 227 221 215 210 230 248
286 292 286 279 266 263 256 256 250 257 250 249 245 243 245 247 246 244 243 245 244 244 240 235 230 226 221 211 208 206 200 210 238 228 222 222 227 227 223 222 226 229 231 231 231 227 220 223 237
293 288 284 280 272 259 253 253 250 251 249 253 249 246 244 246 247 245 245 246 244 244 242 238 235 231 225 217 212 208 199 214 222 209 219 220 231 232 224 223 227 227 232 230 230 233 227 229 232
313 298 282 276 268 259 265 253 249 256 255 253 252 247 246 246 247 247 245 245 243 242 242 241 237 237 231 223 223 216 210 216 221 223 217 226 227 223 210 214 217 223 226 234 239 236 232 228 230
308 303 284 276 274 267 273 255 253 258 256 259 259 251 248 247 248 247 246 244 245 242 242 241 239 238 237 233 226 225 225 233 229 230 232 226 226 220 233 220 221 225 232 235 238 239 236 232 231
319 310 309 287 276 273 273 262 265 260 260 258 254 253 251 246 246 247 247 245 243 243 241 241 241 241 239 237 235 236 239 238 236 232 235 239 239 242 237 232 223 225 228 233 236 236 236 239 236
317 315 317 310 283 278 273 264 262 259 265 268 259 256 253 249 247 248 247 246 245 244 243 242 243 241 239 238 238 240 233 228 238 245 244 236 236 241 240 237 233 231 230 234 236 240 241 240 244
311 314 321 314 299 290 283 268 295 276 275 275 272 269 262 252 248 250 248 247 245 246 244 243 243 244 245 243 241 245 248 245 245 248 243 239 243 243 240 235 236 235 235 236 238 242 243 239 245
315 308 311 307 300 293 283 271 297 299 291 284 280 280 282 262 247 248 253 249 245 244 245 244 244 245 246 246 247 246 249 250 249 251 248 248 244 246 244 246 244 243 241 238 238 242 246 246 247